This is the latest recevied weather packets stored in our database for station/object KK7ISX. If no packets are shown the sender has not sent any weather packets the latest 10 day(s).
| Time | Temp. | Humidity | Pressure | Rain* | Wind** | Luminosity | Snow |
|---|---|---|---|---|---|---|---|
| 1778025889 | 25° C | 28% | 1007.8 hPa | 0 mm | - | 275 W/m² | - |
| 1778025586 | 25.56° C | 28% | 1007.8 hPa | 0 mm | - | 286 W/m² | - |
| 1778025284 | 25° C | 29% | 1007.7 hPa | 0 mm | - | 301 W/m² | - |
| 1778024981 | 25.56° C | 30% | 1007.9 hPa | 0 mm | - | 313 W/m² | - |
| 1778024679 | 25.56° C | 30% | 1007.8 hPa | 0 mm | - | 324 W/m² | - |
| 1778024375 | 25.56° C | 29% | 1007.9 hPa | 0 mm | - | 344 W/m² | - |
| 1778024073 | 25° C | 31% | 1007.9 hPa | 0 mm | - | 356 W/m² | - |
| 1778023770 | 25° C | 30% | 1007.8 hPa | 0 mm | - | 370 W/m² | - |
| 1778023468 | 25° C | 30% | 1007.9 hPa | 0 mm | - | 385 W/m² | - |
| 1778023164 | 25° C | 30% | 1008.1 hPa | 0 mm | - | 399 W/m² | - |
| 1778022862 | 25.56° C | 29% | 1007.9 hPa | 0 mm | - | 410 W/m² | - |
| 1778022560 | 25.56° C | 30% | 1008.1 hPa | 0 mm | - | 434 W/m² | - |
| 1778022258 | 25.56° C | 29% | 1008.1 hPa | 0 mm | - | 448 W/m² | - |
| 1778021954 | 25.56° C | 27% | 1008.1 hPa | 0 mm | - | 462 W/m² | - |
| 1778021652 | 25° C | 29% | 1008.1 hPa | 0 mm | - | 474 W/m² | - |
| 1778021352 | 25° C | 30% | 1008 hPa | 0 mm | - | 482 W/m² | - |
| 1778021050 | 25.56° C | 30% | 1007.9 hPa | 0 mm | - | 490 W/m² | - |
| 1778020746 | 25° C | 30% | 1008 hPa | 0 mm | - | 508 W/m² | - |
| 1778020443 | 25° C | 32% | 1008.3 hPa | 0 mm | - | 515 W/m² | - |
| 1778020139 | 25° C | 32% | 1008.2 hPa | 0 mm | - | 525 W/m² | - |
| 1778019836 | 25° C | 33% | 1008.5 hPa | 0 mm | - | 539 W/m² | - |
| 1778019533 | 25° C | 32% | 1008.6 hPa | 0 mm | - | 551 W/m² | - |
| 1778019229 | 25° C | 34% | 1008.6 hPa | 0 mm | - | 567 W/m² | - |
| 1778018926 | 24.44° C | 36% | 1008.6 hPa | 0 mm | - | 578 W/m² | - |
| 1778018623 | 23.89° C | 35% | 1008.7 hPa | 0 mm | - | 589 W/m² | - |
* Rain latest hour (hover to see other rain measurements)
** Current wind speed in m/s (hover to see current wind gust speed)